(185260) = 2006 UU100

Discovered at Kitt Peak on 2006-10-18 by Spacewatch.

Orbit

Orbit type: Main Belt

Note: WebGL enabled browser required.

epoch2023-09-13.0
epoch JD2460200.5
perihelion date2022-12-23.57248
perihelion JD2459937.07248
argument of perihelion (°)189.73387
ascending node (°)109.79747
inclination (°)4.74482
eccentricity0.1592029
perihelion distance (AU)1.8967740
Tisserand w.r.t. Jupiter3.6
ΔV w.r.t. Earth (km/sec)8.6
semimajor axis (AU)2.2559234
mean anomaly (°)76.62640
mean daily motion (°/day)0.29088230
aphelion distance (AU)2.615
period (years)3.39
P-vector [x]0.49235442
P-vector [y]-0.79290549
P-vector [z]-0.35900976
Q-vector [x]0.86690815
Q-vector [y]0.48360662
Q-vector [z]0.12080930
absolute magnitude17.2
phase slope0.15
uncertainty0
referenceMPEC 2023-Y63
observations used425
oppositions17
arc length (days)9869
first opposition used1996
last opposition used2023
residual rms (arc-secs)0.71
perturbers coarse indicatorM-v
perturbers precise indicator003Ek
first observation date used1996-12-09.0
last observation date used2023-12-17.0
computer nameMPCLINUX
JD of orbit computation2456670.882718
perihelion JD uncertainty (days)1.0218E-04
argument of perihelion uncertainty (°)1.0025E-04
ascending node uncertainty (°)9.5782E-05
inclination uncertainty (°)7.4185E-06
eccentricity uncertainty 6.6365E-08
perihelion distance uncertainty (AU)1.5600E-07
Minimum Orbit Intersection Distances (in AU)
for orbit epoch: 2460200.5, reference: E2023-Y63
Mercury1.45238
Venus1.16906
Earth0.88065
Mars0.47948
Jupiter2.57416
Saturn6.46901
Uranus15.9192
Neptune27.4731

Observations

435 total observations over interval: 1996 12 09.27212 – 2023 12 17.232981
These data are available for download (format description).

Date (UT) J2000 RA J2000 Dec Magn Location Ref
1996 12 09.27212 03 56 49.19 +14 59 27.0 20.7 V 691 – Steward Observatory, Kitt Peak-Spacewatch MPS 197097
1996 12 09.28045 03 56 48.67 +14 59 26.8 20.5 V 691 – Steward Observatory, Kitt Peak-Spacewatch MPS 197097
1996 12 09.28817 03 56 48.18 +14 59 26.5 20.7 V 691 – Steward Observatory, Kitt Peak-Spacewatch MPS 197097
2001 01 31.29617 08 39 50.63 +20 54 48.0 21.6 V 691 – Steward Observatory, Kitt Peak-Spacewatch MPS 197097
2001 01 31.31911 08 39 49.02 +20 54 56.7 21.8 V 691 – Steward Observatory, Kitt Peak-Spacewatch MPS 197097
2001 01 31.34241 08 39 47.53 +20 55 04.0 21.8 V 691 – Steward Observatory, Kitt Peak-Spacewatch MPS 197098
2004 01 28.10345 05 24 32.23 +21 43 34.8 21.2 V 691 – Steward Observatory, Kitt Peak-Spacewatch MPS 197098
2004 01 28.13060 05 24 31.54 +21 43 38.1 21.4 V 691 – Steward Observatory, Kitt Peak-Spacewatch MPS 197098
2004 01 28.15878 05 24 30.90 +21 43 41.0 21.4 V 691 – Steward Observatory, Kitt Peak-Spacewatch MPS 197098
2005 04 04.33336 13 26 12.08 +00 02 33.1 19.5 R 703 – Catalina Sky Survey MPS 197098
2005 04 04.33389 13 26 11.94 +00 02 35.7 19.5 R 703 – Catalina Sky Survey MPS 197098
2005 04 04.34146 13 26 11.58 +00 02 37.6 18.9 R 703 – Catalina Sky Survey MPS 197098
2005 04 04.34199 13 26 11.61 +00 02 38.5 18.8 R 703 – Catalina Sky Survey MPS 197098
2005 04 04.34955 13 26 11.07 +00 02 40.8 19.1 R 703 – Catalina Sky Survey MPS 197098
2005 04 04.35007 13 26 11.00 +00 02 40.3 19.3 R 703 – Catalina Sky Survey MPS 197098
2005 04 04.35759 13 26 10.57 +00 02 43.8 18.7 R 703 – Catalina Sky Survey MPS 197098
2005 04 04.35812 13 26 10.60 +00 02 43.5 19.0 R 703 – Catalina Sky Survey MPS 197098
2006 10 18.34287 03 10 00.60 +09 37 13.2 20.3 V 691 – Steward Observatory, Kitt Peak-Spacewatch MPS 184326
2006 10 18.36024 03 09 59.64 +09 37 09.0 20.4 V 691 – Steward Observatory, Kitt Peak-Spacewatch MPS 184326
2006 10 18.37761 03 09 58.67 +09 37 04.4 20.2 V 691 – Steward Observatory, Kitt Peak-Spacewatch MPS 184326
2006 10 21.33716 03 07 17.47 +09 24 22.8 20.3 V G96 – Mt. Lemmon Survey MPS 184326
2006 10 21.34273 03 07 17.11 +09 24 21.5 20.1 V G96 – Mt. Lemmon Survey MPS 184326
2006 10 21.34845 03 07 16.78 +09 24 19.9 20.1 V G96 – Mt. Lemmon Survey MPS 184326
2006 10 21.35399 03 07 16.42 +09 24 18.5 20.0 V G96 – Mt. Lemmon Survey MPS 184326
2006 10 22.31732 03 06 21.62 +09 20 10.3 20.5 V 691 – Steward Observatory, Kitt Peak-Spacewatch MPS 186563
2006 10 22.33470 03 06 20.59 +09 20 06.0 20.3 V 691 – Steward Observatory, Kitt Peak-Spacewatch MPS 186563
2006 10 22.35208 03 06 19.53 +09 20 01.5 20.6 V 691 – Steward Observatory, Kitt Peak-Spacewatch MPS 186563
2006 11 09.31011 02 47 27.40 +08 10 10.6 20.4 R 644 – Palomar Mountain/NEAT MPS 190594
2006 11 09.33088 02 47 26.06 +08 10 06.4 20.4 R 644 – Palomar Mountain/NEAT MPS 190594
2006 11 09.35296 02 47 24.55 +08 10 01.8 19.8 R 644 – Palomar Mountain/NEAT MPS 190594
2008 02 07.26306 10 33 02.54 +14 11 59.1 20.5 V 691 – Steward Observatory, Kitt Peak-Spacewatch MPS 236330
2008 02 07.28070 10 33 01.61 +14 12 07.7 20.3 V 691 – Steward Observatory, Kitt Peak-Spacewatch MPS 236330
2008 02 07.29585 10 33 00.82 +14 12 13.8 20.4 V 691 – Steward Observatory, Kitt Peak-Spacewatch MPS 236330
2008 02 11.23610 10 29 29.67 +14 41 28.1   691 – Steward Observatory, Kitt Peak-Spacewatch MPS 237619
2008 02 11.25721 10 29 28.55 +14 41 38.0   691 – Steward Observatory, Kitt Peak-Spacewatch MPS 237619
2008 02 11.27486 10 29 27.46 +14 41 45.3   691 – Steward Observatory, Kitt Peak-Spacewatch MPS 237619
2008 03 06.23153 10 05 40.52 +17 27 43.5 20.4 V G96 – Mt. Lemmon Survey MPS 240797
2008 03 06.23759 10 05 40.16 +17 27 45.8 20.4 V G96 – Mt. Lemmon Survey MPS 240797
2008 03 06.24362 10 05 39.84 +17 27 47.3 20.5 V G96 – Mt. Lemmon Survey MPS 240797
2008 03 06.24969 10 05 39.44 +17 27 49.7 20.4 V G96 – Mt. Lemmon Survey MPS 240797
2009 08 22.19775 22 24 06.25 -16 55 02.1 18.8   704 – Lincoln Laboratory ETS, New Mexico MPS 293126
2009 08 22.21040 22 24 05.44 -16 55 06.8 19.2   704 – Lincoln Laboratory ETS, New Mexico MPS 293126
2009 08 22.23588 22 24 04.20 -16 55 18.6 18.7   704 – Lincoln Laboratory ETS, New Mexico MPS 293126
2009 08 22.24859 22 24 03.55 -16 55 25.2 18.7   704 – Lincoln Laboratory ETS, New Mexico MPS 293126
2009 08 27.91370 22 19 11.08 -17 38 40.1 18.2 V J75 – OAM Observatory, La Sagra MPS 293126
2009 08 27.92604 22 19 10.42 -17 38 45.5 18.1 V J75 – OAM Observatory, La Sagra MPS 293126
2009 08 27.93839 22 19 09.72 -17 38 50.8 18.5 V J75 – OAM Observatory, La Sagra MPS 293126
2010 12 06.37693 08 08 33.57 +19 28 33.1 21.1 V G96 – Mt. Lemmon Survey MPS 362362
2010 12 06.38219 08 08 33.39 +19 28 33.5 21.4 V G96 – Mt. Lemmon Survey MPS 362362
2010 12 06.38735 08 08 33.28 +19 28 34.7 21.1 V G96 – Mt. Lemmon Survey MPS 362362
2010 12 14.43268 08 04 38.06 +19 51 48.5 21.4 V G96 – Mt. Lemmon Survey MPS 362362
2010 12 14.43792 08 04 37.88 +19 51 49.7 21.3 V G96 – Mt. Lemmon Survey MPS 362362
2010 12 14.44317 08 04 37.70 +19 51 50.6 21.3 V G96 – Mt. Lemmon Survey MPS 362362
2010 12 14.44841 08 04 37.48 +19 51 51.5 21.5 V G96 – Mt. Lemmon Survey MPS 362362
2011 01 03.32103 07 47 27.60 +21 11 39.0 21.4 V G96 – Mt. Lemmon Survey MPS 365154
2011 01 03.32955 07 47 27.06 +21 11 41.5 21.3 V G96 – Mt. Lemmon Survey MPS 365154
2011 01 03.33961 07 47 26.37 +21 11 44.0 21.4 V G96 – Mt. Lemmon Survey MPS 365154
2011 01 03.34899 07 47 25.80 +21 11 46.2 20.9 V G96 – Mt. Lemmon Survey MPS 365154
2011 01 14.32433 07 35 08.77 +22 00 23.1 20.1 V G96 – Mt. Lemmon Survey MPS 366641
2011 01 14.33244 07 35 08.16 +22 00 25.4 20.1 V G96 – Mt. Lemmon Survey MPS 366641
2011 01 14.34061 07 35 07.58 +22 00 27.5 20.2 V G96 – Mt. Lemmon Survey MPS 366641
2011 01 14.34870 07 35 07.04 +22 00 29.5 20.2 V G96 – Mt. Lemmon Survey MPS 366641
2012 03 16.50559 16 05 12.98 -14 23 16.6 20.5 V G96 – Mt. Lemmon Survey MPS 416994
2012 03 16.51077 16 05 13.16 -14 23 16.6 20.4 V G96 – Mt. Lemmon Survey MPS 416994
2012 03 16.51602 16 05 13.38 -14 23 16.8 20.4 V G96 – Mt. Lemmon Survey MPS 416994
2012 03 16.52122 16 05 13.59 -14 23 17.0 20.4 V G96 – Mt. Lemmon Survey MPS 416994
2012 03 28.48977 16 12 04.89 -14 16 39.3 20.0 V G96 – Mt. Lemmon Survey MPS 419952
2012 03 28.49436 16 12 04.96 -14 16 38.9 20.4 V G96 – Mt. Lemmon Survey MPS 419952
2012 03 28.49905 16 12 05.07 -14 16 39.0 20.1 V G96 – Mt. Lemmon Survey MPS 419952
2012 03 28.50368 16 12 05.14 -14 16 38.4 20.2 V G96 – Mt. Lemmon Survey MPS 419952
2012 04 27.42146 16 09 11.52 -13 20 26.0 19.2 V G96 – Mt. Lemmon Survey MPS 422639
2012 04 27.42735 16 09 11.26 -13 20 25.3 19.2 V G96 – Mt. Lemmon Survey MPS 422639
2012 04 27.43319 16 09 11.05 -13 20 24.3 19.2 V G96 – Mt. Lemmon Survey MPS 422639
2012 04 27.43907 16 09 10.80 -13 20 23.7 19.2 V G96 – Mt. Lemmon Survey MPS 422639
2012 05 10.50493 15 59 01.317 -12 50 12.48 19.1 i F51 – Pan-STARRS 1, Haleakala MPS 423893
2012 05 10.51555 15 59 00.694 -12 50 11.13 19.0 i F51 – Pan-STARRS 1, Haleakala MPS 423893
2012 05 13.30230 15 56 21.87 -12 44 29.0 18.6 V 703 – Catalina Sky Survey MPS 424728
2012 05 13.31087 15 56 21.30 -12 44 28.9 19.2 V 703 – Catalina Sky Survey MPS 424728
2012 05 13.31943 15 56 20.83 -12 44 28.3 18.8 V 703 – Catalina Sky Survey MPS 424728
2012 05 13.32799 15 56 20.25 -12 44 26.3 18.7 V 703 – Catalina Sky Survey MPS 424728
2012 05 15.30885 15 54 23.06 -12 40 40.6 18.7   704 – Lincoln Laboratory ETS, New Mexico MPS 424728
2012 05 15.32044 15 54 22.32 -12 40 38.1 18.9   704 – Lincoln Laboratory ETS, New Mexico MPS 424728
2012 05 15.33198 15 54 21.59 -12 40 36.5 19.0   704 – Lincoln Laboratory ETS, New Mexico MPS 424728
2012 05 15.34357 15 54 20.88 -12 40 36.3 19.1   704 – Lincoln Laboratory ETS, New Mexico MPS 424728
2012 05 15.35513 15 54 20.18 -12 40 34.6 19.0   704 – Lincoln Laboratory ETS, New Mexico MPS 424728
2012 05 16.28999 15 53 24.00 -12 38 53.1 18.5 V G96 – Mt. Lemmon Survey MPS 424728
2012 05 16.29582 15 53 23.64 -12 38 52.4 18.6 V G96 – Mt. Lemmon Survey MPS 424728
2012 05 16.30170 15 53 23.28 -12 38 51.9 18.7 V G96 – Mt. Lemmon Survey MPS 424728
2012 05 16.30754 15 53 22.88 -12 38 51.3 18.6 V G96 – Mt. Lemmon Survey MPS 424728
2012 05 20.33742 15 49 15.09 -12 32 20.6 18.3 V 703 – Catalina Sky Survey MPS 425787
